ProjectID,Date,Electric Generation,Electric Utility Import,Facility Electric Load
,YYYY-MM-DD,kW,kW,kW
91,2012-05-02,0.0,,0.0
91,2012-05-03,0.0,,0.0
91,2012-05-04,0.0,,0.0
91,2012-05-05,0.0,,0.0
91,2012-05-06,0.0,,0.0
91,2012-05-07,4.1049999999999995,,4.1049999999999995
91,2012-05-08,0.14875,,0.14875
91,2012-05-09,0.0,,0.0
91,2012-05-10,11.115,,11.115
91,2012-05-11,15.695,,15.695
91,2012-05-12,0.0,,0.0
91,2012-05-13,0.0,,0.0
91,2012-05-14,0.1475,,0.1475
91,2012-05-15,10.362499999999999,,10.362499999999999
91,2012-05-16,36.57125,,36.57125
91,2012-05-17,0.0,,0.0
91,2012-05-18,21.49875,,21.49875
91,2012-05-19,0.0,,0.0
91,2012-05-20,0.0,,0.0
91,2012-05-21,18.6525,,18.6525
91,2012-05-22,36.71,,36.71
91,2012-05-23,0.0,,0.0
91,2012-05-24,4.16875,,4.16875
91,2012-05-25,11.22875,,11.22875
91,2012-05-26,0.0,,0.0
91,2012-05-27,0.0,,0.0
91,2012-05-28,0.0,,0.0
91,2012-05-29,0.0,,0.0
91,2012-05-30,0.0,,0.0
91,2012-05-31,0.0,,0.0
91,2012-06-01,53.088750000000005,,53.088750000000005
91,2012-06-02,0.00375,,0.00375
91,2012-06-03,0.005,,0.005
91,2012-06-04,98.12374999999999,,98.12374999999999
91,2012-06-05,175.25125,,175.25125
91,2012-06-06,147.050125,,147.050125
91,2012-06-07,192.95749999999998,,192.95749999999998
91,2012-06-08,226.24870833333333,,226.24870833333333
91,2012-06-09,226.18879166666667,,226.18879166666667
91,2012-06-10,140.32379166666666,,140.32379166666666
91,2012-06-11,97.26254166666666,,97.26254166666666
91,2012-06-12,136.42866666666666,,136.42866666666666
91,2012-06-13,177.38887499999998,,177.38887499999998
91,2012-06-14,128.11016666666666,,128.11016666666666
91,2012-06-15,130.32104166666667,,130.32104166666667
91,2012-06-16,17.628708333333332,,17.628708333333332
91,2012-06-17,22.677541666666666,,22.677541666666666
91,2012-06-18,32.324999999999996,,32.324999999999996
91,2012-06-19,105.14241666666668,,105.14241666666668
91,2012-06-20,78.572625,,78.572625
91,2012-06-21,1.555,,1.555
91,2012-06-22,0.0,,0.0
91,2012-06-23,0.0,,0.0
91,2012-06-24,0.0,,0.0
91,2012-06-25,94.75379166666666,,94.75379166666666
91,2012-06-26,155.37741666666668,,155.37741666666668
91,2012-06-27,151.58654166666668,,151.58654166666668
91,2012-06-28,152.89229166666667,,152.89229166666667
91,2012-06-29,122.743875,,122.743875
91,2012-06-30,167.83983333333333,,167.83983333333333
91,2012-07-01,168.04883333333333,,168.04883333333333
91,2012-07-02,168.29270833333334,,168.29270833333334
91,2012-07-03,168.09995833333332,,168.09995833333332
91,2012-07-04,168.27508333333333,,168.27508333333333
91,2012-07-05,168.49995833333332,,168.49995833333332
91,2012-07-06,168.418625,,168.418625
91,2012-07-07,167.98962500000002,,167.98962500000002
91,2012-07-08,168.358,,168.358
91,2012-07-09,168.19766666666666,,168.19766666666666
91,2012-07-10,167.542375,,167.542375
91,2012-07-11,192.667,,192.667
91,2012-07-12,198.437125,,198.437125
91,2012-07-13,177.30241666666666,,177.30241666666666
91,2012-07-14,177.99775,,177.99775
91,2012-07-15,177.939375,,177.939375
91,2012-07-16,177.61933333333332,,177.61933333333332
91,2012-07-17,177.34379166666668,,177.34379166666668
91,2012-07-18,92.86520833333333,,92.86520833333333
91,2012-07-19,101.320375,,101.320375
91,2012-07-20,204.81975,,204.81975
91,2012-07-21,235.119875,,235.119875
91,2012-07-22,234.99749999999997,,234.99749999999997
91,2012-07-23,173.28070833333334,,173.28070833333334
91,2012-07-24,242.1699583333333,,242.1699583333333
91,2012-07-25,255.17575,,255.17575
91,2012-07-26,208.12904166666667,,208.12904166666667
91,2012-07-27,254.062625,,254.062625
91,2012-07-28,255.16549999999998,,255.16549999999998
91,2012-07-29,108.44858333333333,,108.44858333333333
91,2012-07-30,108.96616666666667,,108.96616666666667
91,2012-07-31,201.83275,,201.83275
91,2012-08-01,8.967416666666667,,8.967416666666667
91,2012-08-02,39.28516666666667,,39.28516666666667
91,2012-08-03,110.28116666666666,,110.28116666666666
91,2012-08-04,189.30212500000002,,189.30212500000002
91,2012-08-05,188.963625,,188.963625
91,2012-08-06,190.04437499999997,,190.04437499999997
91,2012-08-07,190.33470833333334,,190.33470833333334
91,2012-08-08,189.63733333333334,,189.63733333333334
91,2012-08-09,189.15770833333332,,189.15770833333332
91,2012-08-10,189.65504166666665,,189.65504166666665
91,2012-08-11,189.54629166666666,,189.54629166666666
91,2012-08-12,189.6055,,189.6055
91,2012-08-13,189.91741666666667,,189.91741666666667
91,2012-08-14,189.57358333333332,,189.57358333333332
91,2012-08-15,189.4622916666667,,189.4622916666667
91,2012-08-16,238.59779166666667,,238.59779166666667
91,2012-08-17,185.88808333333336,,185.88808333333336
91,2012-08-18,123.82304166666667,,123.82304166666667
91,2012-08-19,166.69416666666666,,166.69416666666666
91,2012-08-20,190.02745833333333,,190.02745833333333
91,2012-08-21,190.0716666666667,,190.0716666666667
91,2012-08-22,189.44933333333333,,189.44933333333333
91,2012-08-23,252.04304166666668,,252.04304166666668
91,2012-08-24,252.422,,252.422
91,2012-08-25,192.70837500000002,,192.70837500000002
91,2012-08-26,0.0,,0.0
91,2012-08-27,176.24620833333333,,176.24620833333333
91,2012-08-28,198.03008333333332,,198.03008333333332
91,2012-08-29,32.98970833333333,,32.98970833333333
91,2012-08-30,108.35945833333334,,108.35945833333334
91,2012-08-31,93.60945833333334,,93.60945833333334
91,2012-09-01,42.2865,,42.2865
91,2012-09-02,23.69920833333333,,23.69920833333333
91,2012-09-03,0.0,,0.0
91,2012-09-04,149.85683333333333,,149.85683333333333
91,2012-09-05,180.96758333333332,,180.96758333333332
91,2012-09-06,146.50004166666668,,146.50004166666668
91,2012-09-07,255.3334583333333,,255.3334583333333
91,2012-09-08,255.24483333333333,,255.24483333333333
91,2012-09-09,255.75008333333335,,255.75008333333335
91,2012-09-10,209.08595833333334,,209.08595833333334
91,2012-09-11,212.96629166666665,,212.96629166666665
91,2012-09-12,165.31908333333334,,165.31908333333334
91,2012-09-13,178.20854166666666,,178.20854166666666
91,2012-09-14,200.85175,,200.85175
91,2012-09-15,192.57562499999997,,192.57562499999997
91,2012-09-16,189.94808333333333,,189.94808333333333
91,2012-09-17,212.56395833333332,,212.56395833333332
91,2012-09-18,254.629,,254.629
91,2012-09-19,239.27874999999997,,239.27874999999997
91,2012-09-20,169.23054166666665,,169.23054166666665
91,2012-09-21,183.50270833333332,,183.50270833333332
91,2012-09-22,156.87379166666668,,156.87379166666668
91,2012-09-23,144.355625,,144.355625
91,2012-09-24,121.62904166666668,,121.62904166666668
91,2012-09-25,192.307375,,192.307375
91,2012-09-26,244.56387500000002,,244.56387500000002
91,2012-09-27,236.014375,,236.014375
91,2012-09-28,225.84004166666668,,225.84004166666668
91,2012-09-29,222.81258333333335,,222.81258333333335
91,2012-09-30,179.35304166666666,,179.35304166666666
91,2012-10-01,182.67325000000002,,182.67325000000002
91,2012-10-02,212.88170833333334,,212.88170833333334
91,2012-10-03,201.65633333333335,,201.65633333333335
91,2012-10-04,185.71624999999997,,185.71624999999997
91,2012-10-05,235.43375,,235.43375
91,2012-10-06,205.77358333333333,,205.77358333333333
91,2012-10-07,234.09900000000002,,234.09900000000002
91,2012-10-08,233.74758333333332,,233.74758333333332
91,2012-10-09,234.922,,234.922
91,2012-10-10,215.57429166666668,,215.57429166666668
91,2012-10-11,164.68766666666667,,164.68766666666667
91,2012-10-12,235.11208333333332,,235.11208333333332
91,2012-10-13,234.591375,,234.591375
91,2012-10-14,235.68770833333335,,235.68770833333335
91,2012-10-15,177.12787500000002,,177.12787500000002
91,2012-10-16,99.05741666666667,,99.05741666666667
91,2012-10-17,234.903875,,234.903875
91,2012-10-18,235.010625,,235.010625
91,2012-10-19,236.39866666666668,,236.39866666666668
91,2012-10-20,235.760625,,235.760625
91,2012-10-21,235.310125,,235.310125
91,2012-10-22,235.83095833333334,,235.83095833333334
91,2012-10-23,79.38033333333333,,79.38033333333333
91,2012-10-24,56.333416666666665,,56.333416666666665
91,2012-10-25,174.32841666666664,,174.32841666666664
91,2012-10-26,161.7815,,161.7815
91,2012-10-27,137.664375,,137.664375
91,2012-10-28,150.39608333333334,,150.39608333333334
91,2012-10-29,163.79183333333333,,163.79183333333333
91,2012-10-30,0.0,,0.0
91,2012-10-31,166.174625,,166.174625
91,2012-11-01,234.09920833333334,,234.09920833333334
91,2012-11-02,234.94816666666668,,234.94816666666668
91,2012-11-03,235.34400000000002,,235.34400000000002
91,2012-11-04,235.37525000000002,,235.37525000000002
91,2012-11-05,235.325875,,235.325875
91,2012-11-06,234.73720833333334,,234.73720833333334
91,2012-11-07,235.07058333333336,,235.07058333333336
91,2012-11-08,211.88308333333336,,211.88308333333336
91,2012-11-09,225.03154166666664,,225.03154166666664
91,2012-11-10,235.25804166666668,,235.25804166666668
91,2012-11-11,235.53937499999998,,235.53937499999998
91,2012-11-12,210.88308333333336,,210.88308333333336
91,2012-11-13,198.20337500000002,,198.20337500000002
91,2012-11-14,234.93516666666667,,234.93516666666667
91,2012-11-15,235.04191666666668,,235.04191666666668
91,2012-11-16,235.30754166666668,,235.30754166666668
91,2012-11-17,235.66170833333334,,235.66170833333334
91,2012-11-18,235.57841666666664,,235.57841666666664
91,2012-11-19,235.779,,235.779
91,2012-11-20,235.638375,,235.638375
91,2012-11-21,179.79191666666668,,179.79191666666668
91,2012-11-22,232.9195,,232.9195
91,2012-11-23,232.96383333333333,,232.96383333333333
91,2012-11-24,232.91433333333336,,232.91433333333336
91,2012-11-25,232.30237499999998,,232.30237499999998
91,2012-11-26,233.03408333333334,,233.03408333333334
91,2012-11-27,233.32579166666667,,233.32579166666667
91,2012-11-28,233.35704166666667,,233.35704166666667
91,2012-11-29,232.81275000000002,,232.81275000000002
91,2012-11-30,234.42216666666664,,234.42216666666664
91,2012-12-01,234.26325,,234.26325
91,2012-12-02,235.01066666666668,,235.01066666666668
91,2012-12-03,106.38033333333334,,106.38033333333334
91,2012-12-04,233.057625,,233.057625
91,2012-12-05,233.786625,,233.786625
91,2012-12-06,197.98204166666667,,197.98204166666667
91,2012-12-07,213.07062499999998,,213.07062499999998
91,2012-12-08,234.35954166666667,,234.35954166666667
91,2012-12-09,233.97166666666666,,233.97166666666666
91,2012-12-10,205.46116666666668,,205.46116666666668
91,2012-12-11,233.29716666666664,,233.29716666666664
91,2012-12-12,233.08354166666666,,233.08354166666666
91,2012-12-13,233.13566666666668,,233.13566666666668
91,2012-12-14,218.86749999999998,,218.86749999999998
91,2012-12-15,233.63825,,233.63825
91,2012-12-16,234.14354166666666,,234.14354166666666
91,2012-12-17,233.66429166666668,,233.66429166666668
91,2012-12-18,233.64879166666665,,233.64879166666665
91,2012-12-19,233.79975000000002,,233.79975000000002
91,2012-12-20,180.65650000000002,,180.65650000000002
91,2012-12-21,176.16437499999998,,176.16437499999998
91,2012-12-22,231.745,,231.745
91,2012-12-23,235.06525,,235.06525
91,2012-12-24,235.099125,,235.099125
91,2012-12-25,235.38579166666668,,235.38579166666668
91,2012-12-26,163.367375,,163.367375
91,2012-12-27,93.60175,,93.60175
91,2012-12-28,205.16954166666667,,205.16954166666667
91,2012-12-29,234.08095833333334,,234.08095833333334
91,2012-12-30,233.35954166666667,,233.35954166666667
91,2012-12-31,233.92208333333335,,233.92208333333335
91,2013-01-01,232.98466666666664,,232.98466666666664
91,2013-01-02,233.53412500000002,,233.53412500000002
91,2013-01-03,233.50025000000002,,233.50025000000002
91,2013-01-04,234.01587500000002,,234.01587500000002
91,2013-01-05,234.091375,,234.091375
91,2013-01-06,233.71120833333336,,233.71120833333336
91,2013-01-07,234.086125,,234.086125
91,2013-01-08,233.9795,,233.9795
91,2013-01-09,234.37,,234.37
91,2013-01-10,234.44808333333333,,234.44808333333333
91,2013-01-11,234.42470833333334,,234.42470833333334
91,2013-01-12,234.51579166666667,,234.51579166666667
91,2013-01-13,234.58891666666668,,234.58891666666668
91,2013-01-14,234.95600000000002,,234.95600000000002
91,2013-01-15,221.73729166666666,,221.73729166666666
91,2013-01-16,234.27366666666668,,234.27366666666668
91,2013-01-17,234.35433333333333,,234.35433333333333
91,2013-01-18,223.90645833333335,,223.90645833333335
91,2013-01-19,235.48983333333334,,235.48983333333334
91,2013-01-20,190.60454166666668,,190.60454166666668
91,2013-01-21,125.614875,,125.614875
91,2013-01-22,232.68783333333332,,232.68783333333332
91,2013-01-23,140.06775000000002,,140.06775000000002
91,2013-01-24,97.92708333333333,,97.92708333333333
91,2013-01-25,91.359375,,91.359375
91,2013-01-26,49.932291666666664,,49.932291666666664
91,2013-01-27,25.177083333333332,,25.177083333333332
91,2013-01-28,117.00520833333333,,117.00520833333333
91,2013-01-29,210.06770833333334,,210.06770833333334
91,2013-01-30,235.50520833333334,,235.50520833333334
91,2013-01-31,235.43229166666666,,235.43229166666666
91,2013-02-01,235.03125,,235.03125
91,2013-02-02,235.359375,,235.359375
91,2013-02-03,233.59375,,233.59375
91,2013-02-04,233.56770833333334,,233.56770833333334
91,2013-02-05,233.51041666666666,,233.51041666666666
91,2013-02-06,233.77604166666666,,233.77604166666666
91,2013-02-07,233.46354166666666,,233.46354166666666
91,2013-02-08,234.09375,,234.09375
91,2013-02-09,234.58333333333334,,234.58333333333334
91,2013-02-10,234.28125,,234.28125
91,2013-02-11,234.71875,,234.71875
91,2013-02-12,234.58854166666666,,234.58854166666666
91,2013-02-13,234.265625,,234.265625
91,2013-02-14,214.02604166666666,,214.02604166666666
91,2013-02-15,234.54166666666666,,234.54166666666666
91,2013-02-16,234.41666666666666,,234.41666666666666
91,2013-02-17,234.57291666666666,,234.57291666666666
91,2013-02-18,234.33333333333334,,234.33333333333334
91,2013-02-19,208.96354166666666,,208.96354166666666
91,2013-02-20,193.01041666666666,,193.01041666666666
91,2013-02-21,215.77083333333334,,215.77083333333334
91,2013-02-22,235.44791666666666,,235.44791666666666
91,2013-02-23,235.984375,,235.984375
91,2013-02-24,235.765625,,235.765625
91,2013-02-25,235.53645833333334,,235.53645833333334
91,2013-02-26,235.5,,235.5
91,2013-02-27,235.6875,,235.6875
91,2013-02-28,234.0,,234.0
91,2013-03-01,232.70833333333334,,232.70833333333334
91,2013-03-02,232.36979166666666,,232.36979166666666
91,2013-03-03,232.31770833333334,,232.31770833333334
91,2013-03-04,231.90625,,231.90625
91,2013-03-05,232.35416666666666,,232.35416666666666
91,2013-03-06,232.72916666666666,,232.72916666666666
91,2013-03-07,232.21354166666666,,232.21354166666666
91,2013-03-08,232.140625,,232.140625
91,2013-03-09,232.671875,,232.671875
91,2013-03-10,232.0625,,232.0625
91,2013-03-11,233.67708333333334,,233.67708333333334
91,2013-03-12,235.86979166666666,,235.86979166666666
91,2013-03-13,235.00520833333334,,235.00520833333334
91,2013-03-14,218.52083333333334,,218.52083333333334
91,2013-03-15,199.91145833333334,,199.91145833333334
91,2013-03-16,174.5,,174.5
91,2013-03-17,174.28125,,174.28125
91,2013-03-18,175.515625,,175.515625
91,2013-03-19,176.05208333333334,,176.05208333333334
91,2013-03-20,174.609375,,174.609375
91,2013-03-21,192.52604166666666,,192.52604166666666
91,2013-03-22,234.40104166666666,,234.40104166666666
91,2013-03-23,234.38020833333334,,234.38020833333334
91,2013-03-24,234.265625,,234.265625
91,2013-03-25,234.484375,,234.484375
91,2013-03-26,234.6875,,234.6875
91,2013-03-27,234.875,,234.875
91,2013-03-28,235.01041666666666,,235.01041666666666
91,2013-03-29,235.29166666666666,,235.29166666666666
91,2013-03-30,235.25,,235.25
91,2013-03-31,235.51041666666666,,235.51041666666666
91,2013-04-01,229.27083333333334,,229.27083333333334
91,2013-04-02,235.63020833333334,,235.63020833333334
91,2013-04-03,235.56770833333334,,235.56770833333334
91,2013-04-04,236.125,,236.125
91,2013-04-05,235.85416666666666,,235.85416666666666
91,2013-04-06,236.78125,,236.78125
91,2013-04-07,236.89583333333334,,236.89583333333334
91,2013-04-08,205.546875,,205.546875
91,2013-04-09,179.92708333333334,,179.92708333333334
91,2013-04-10,185.90625,,185.90625
91,2013-04-11,220.08333333333334,,220.08333333333334
91,2013-04-12,234.07291666666666,,234.07291666666666
91,2013-04-13,236.11458333333334,,236.11458333333334
91,2013-04-14,235.796875,,235.796875
91,2013-04-15,234.91666666666666,,234.91666666666666
91,2013-04-16,234.08333333333334,,234.08333333333334
91,2013-04-17,202.734375,,202.734375
91,2013-04-18,192.36979166666666,,192.36979166666666
91,2013-04-19,211.15625,,211.15625
91,2013-04-20,227.84895833333334,,227.84895833333334
91,2013-04-21,226.99479166666666,,226.99479166666666
91,2013-04-22,227.27083333333334,,227.27083333333334
91,2013-04-23,226.96354166666666,,226.96354166666666
91,2013-04-24,227.40625,,227.40625
91,2013-04-25,226.078125,,226.078125
91,2013-04-26,227.81770833333334,,227.81770833333334
91,2013-04-27,227.55208333333334,,227.55208333333334
91,2013-04-28,226.69791666666666,,226.69791666666666
91,2013-04-29,227.47395833333334,,227.47395833333334
91,2013-04-30,76.63541666666667,,76.63541666666667
91,2013-05-01,96.625,,96.625
91,2013-05-02,192.9375,,192.9375
91,2013-05-03,189.72395833333334,,189.72395833333334
91,2013-05-04,180.16666666666666,,180.16666666666666
91,2013-05-05,214.31770833333334,,214.31770833333334
91,2013-05-06,210.89583333333334,,210.89583333333334
91,2013-05-07,185.16666666666666,,185.16666666666666
91,2013-05-08,219.53125,,219.53125
91,2013-05-09,210.13541666666666,,210.13541666666666
91,2013-05-10,181.0625,,181.0625
91,2013-05-11,174.14583333333334,,174.14583333333334
91,2013-05-12,174.32291666666666,,174.32291666666666
91,2013-05-13,173.671875,,173.671875
91,2013-05-14,211.71875,,211.71875
91,2013-05-15,234.828125,,234.828125
91,2013-05-16,208.234375,,208.234375
91,2013-05-17,187.25,,187.25
91,2013-05-18,173.72916666666666,,173.72916666666666
91,2013-05-19,174.03125,,174.03125
91,2013-05-20,137.734375,,137.734375
91,2013-05-21,236.06770833333334,,236.06770833333334
91,2013-05-22,236.15625,,236.15625
91,2013-05-23,224.28125,,224.28125
91,2013-05-24,233.1875,,233.1875
91,2013-05-25,232.328125,,232.328125
91,2013-05-26,232.109375,,232.109375
91,2013-05-27,231.875,,231.875
91,2013-05-28,232.328125,,232.328125
91,2013-05-29,233.03125,,233.03125
91,2013-05-30,232.91145833333334,,232.91145833333334
91,2013-05-31,232.84895833333334,,232.84895833333334
91,2013-06-01,232.65104166666666,,232.65104166666666
91,2013-06-02,233.140625,,233.140625
91,2013-06-03,233.75520833333334,,233.75520833333334
91,2013-06-04,169.55208333333334,,169.55208333333334
91,2013-06-05,234.34895833333334,,234.34895833333334
91,2013-06-06,234.02083333333334,,234.02083333333334
91,2013-06-07,234.51041666666666,,234.51041666666666
91,2013-06-08,234.83854166666666,,234.83854166666666
91,2013-06-09,234.609375,,234.609375
91,2013-06-10,232.515625,,232.515625
91,2013-06-11,224.09375,,224.09375
91,2013-06-12,236.32291666666666,,236.32291666666666
91,2013-06-13,237.08854166666666,,237.08854166666666
91,2013-06-14,236.671875,,236.671875
91,2013-06-15,236.0625,,236.0625
91,2013-06-16,236.546875,,236.546875
91,2013-06-17,237.109375,,237.109375
91,2013-06-18,237.56770833333334,,237.56770833333334
91,2013-06-19,236.5,,236.5
91,2013-06-20,146.28125,,146.28125
91,2013-06-21,235.71354166666666,,235.71354166666666
91,2013-06-22,235.59895833333334,,235.59895833333334
91,2013-06-23,235.48958333333334,,235.48958333333334
91,2013-06-24,234.97916666666666,,234.97916666666666
91,2013-06-25,221.93229166666666,,221.93229166666666
91,2013-06-26,210.84375,,210.84375
91,2013-06-27,235.421875,,235.421875
91,2013-06-28,233.83333333333334,,233.83333333333334
91,2013-06-29,235.046875,,235.046875
91,2013-06-30,234.99479166666666,,234.99479166666666
91,2013-07-01,235.13541666666666,,235.13541666666666
91,2013-07-02,235.39583333333334,,235.39583333333334
91,2013-07-03,217.16145833333334,,217.16145833333334
91,2013-07-04,204.71354166666666,,204.71354166666666
91,2013-07-05,176.28125,,176.28125
91,2013-07-06,177.59375,,177.59375
91,2013-07-07,165.31770833333334,,165.31770833333334
91,2013-07-08,176.13020833333334,,176.13020833333334
91,2013-07-09,207.61458333333334,,207.61458333333334
91,2013-07-10,232.88020833333334,,232.88020833333334
91,2013-07-11,233.43229166666666,,233.43229166666666
91,2013-07-12,233.25520833333334,,233.25520833333334
91,2013-07-13,233.28125,,233.28125
91,2013-07-14,233.09375,,233.09375
91,2013-07-15,123.60416666666667,,123.60416666666667
91,2013-07-16,0.0,,0.0
91,2013-07-17,1.125,,1.125
91,2013-07-18,31.380208333333332,,31.380208333333332
91,2013-07-19,57.59375,,57.59375
91,2013-07-20,5.192708333333333,,5.192708333333333
91,2013-07-21,3.0208333333333335,,3.0208333333333335
91,2013-07-22,177.69791666666666,,177.69791666666666
91,2013-07-23,236.296875,,236.296875
91,2013-07-24,224.78125,,224.78125
91,2013-07-25,211.140625,,211.140625
91,2013-07-26,211.44270833333334,,211.44270833333334
91,2013-07-27,191.578125,,191.578125
91,2013-07-28,194.08333333333334,,194.08333333333334
91,2013-07-29,199.42708333333334,,199.42708333333334
91,2013-07-30,196.78125,,196.78125
91,2013-07-31,173.50520833333334,,173.50520833333334
91,2013-08-01,197.55208333333334,,197.55208333333334
91,2013-08-02,210.34895833333334,,210.34895833333334
91,2013-08-03,211.484375,,211.484375
91,2013-08-04,120.24479166666667,,120.24479166666667
91,2013-08-05,111.92708333333333,,111.92708333333333
91,2013-08-06,211.41666666666666,,211.41666666666666
91,2013-08-07,211.296875,,211.296875
91,2013-08-08,198.578125,,198.578125
91,2013-08-09,211.21354166666666,,211.21354166666666
91,2013-08-10,211.25520833333334,,211.25520833333334
91,2013-08-11,56.010416666666664,,56.010416666666664
91,2013-08-12,125.16145833333333,,125.16145833333333
91,2013-08-13,109.38020833333333,,109.38020833333333
91,2013-08-14,124.20833333333333,,124.20833333333333
91,2013-08-15,211.4375,,211.4375
91,2013-08-16,211.74479166666666,,211.74479166666666
91,2013-08-17,211.609375,,211.609375
91,2013-08-18,211.41666666666666,,211.41666666666666
91,2013-08-19,126.90104166666667,,126.90104166666667
91,2013-08-20,134.06770833333334,,134.06770833333334
91,2013-08-21,212.13020833333334,,212.13020833333334
91,2013-08-22,212.27604166666666,,212.27604166666666
91,2013-08-23,212.71354166666666,,212.71354166666666
91,2013-08-24,73.60416666666667,,73.60416666666667
91,2013-08-25,0.0,,0.0
91,2013-08-26,127.24479166666667,,127.24479166666667
91,2013-08-27,211.77604166666666,,211.77604166666666
91,2013-08-28,211.61458333333334,,211.61458333333334
91,2013-08-29,211.6875,,211.6875
91,2013-08-30,211.95833333333334,,211.95833333333334
91,2013-08-31,211.55208333333334,,211.55208333333334
91,2013-09-01,211.41666666666666,,211.41666666666666
91,2013-09-02,55.979166666666664,,55.979166666666664
91,2013-09-03,104.79166666666667,,104.79166666666667
91,2013-09-04,212.5625,,212.5625
91,2013-09-05,212.14583333333334,,212.14583333333334
91,2013-09-06,211.34375,,211.34375
91,2013-09-07,211.20833333333334,,211.20833333333334
91,2013-09-08,211.71875,,211.71875
91,2013-09-09,211.375,,211.375
91,2013-09-10,212.25,,212.25
91,2013-09-11,212.57291666666666,,212.57291666666666
91,2013-09-12,205.01041666666666,,205.01041666666666
91,2013-09-13,212.16666666666666,,212.16666666666666
91,2013-09-14,211.47916666666666,,211.47916666666666
91,2013-09-15,211.57291666666666,,211.57291666666666
91,2013-09-16,204.58333333333334,,204.58333333333334
91,2013-09-17,70.23958333333333,,70.23958333333333
91,2013-09-18,210.09375,,210.09375
91,2013-09-19,210.5,,210.5
91,2013-09-20,210.73958333333334,,210.73958333333334
91,2013-09-21,210.98958333333334,,210.98958333333334
91,2013-09-22,211.21875,,211.21875
91,2013-09-23,210.71875,,210.71875
91,2013-09-24,164.57291666666666,,164.57291666666666
91,2013-09-25,210.38541666666666,,210.38541666666666